Вернуться в каталог

FALCON EYE 2

АктивенВоенныеSSO
NORAD 47226·PAYLOAD·🇦🇪 UAE

Запущен Dec 2, 2020 с Guiana Space Centre

Loading…

Ближайшие Пролёты (ближайшие 24 часа)

TLE

СвежийSource: Space-Track

Эпоха: Sep 14, 2026, 22:14 UTC

1 47226U 20090A   26257.92663984  .00000382  00000-0  51121-4 0  9998
2 47226  97.8514 331.4060 0001353  74.6636 285.4728 14.84912943313556

Отслеживайте FALCON EYE 2 в реальном времени с AllMySat

Download on the App Store